| time (UTC) | temp F | wind direction | speed MPH | gust MPH | rain 1hr in | rain 24hr in | rain mn in | humidity % | barometer mb |
| 20260505011349 | 62 | 50 | 9.0 | 13.0 | 0.02 | 0.02 | 0.02 | 70 | 1022.4 |
| 20260505010335 | 62 | 38 | 6.0 | 13.0 | 0.01 | 0.01 | 0.01 | 65 | 1022.4 |
| 20260505005318 | 64 | 54 | 7.0 | 12.0 | 0.01 | 0.01 | 0.01 | 59 | 1022.2 |
| 20260505004324 | 65 | 48 | 6.0 | 10.0 | 0.00 | 0.00 | 0.00 | 55 | 1022.6 |
| 20260505003339 | 66 | 5 | 4.0 | 8.0 | 0.00 | 0.00 | 0.00 | 51 | 1023.0 |
| 20260505002326 | 67 | 60 | 3.0 | 11.0 | 0.00 | 0.00 | 0.00 | 47 | 1022.8 |
| 20260505001333 | 67 | 35 | 6.0 | 11.0 | 0.00 | 0.00 | 0.00 | 41 | 1022.4 |
| 20260505000321 | 68 | 37 | 6.0 | 18.0 | 0.00 | 0.00 | 0.00 | 38 | 1022.3 |
| 20260504235355 | 71 | 340 | 15.0 | 23.0 | 0.00 | 0.00 | 0.00 | 29 | 1021.9 |
| 20260504234342 | 72 | 319 | 14.0 | 23.0 | 0.00 | 0.00 | 0.00 | 27 | 1021.8 |
| 20260504233335 | 73 | 259 | 12.0 | 25.0 | 0.00 | 0.00 | 0.00 | 26 | 1021.8 |
| 20260504232354 | 74 | 298 | 16.0 | 29.0 | 0.00 | 0.00 | 0.00 | 24 | 1021.8 |
| 20260504231322 | 75 | 298 | 13.0 | 22.0 | 0.00 | 0.00 | 0.00 | 23 | 1021.7 |
| 20260504230327 | 76 | 271 | 11.0 | 24.0 | 0.00 | 0.00 | 0.00 | 20 | 1021.5 |
| 20260504225326 | 77 | 310 | 12.0 | 24.0 | 0.00 | 0.00 | 0.00 | 19 | 1021.3 |
| 20260504224402 | 77 | 270 | 11.0 | 18.0 | 0.00 | 0.00 | 0.00 | 17 | 1021.3 |
| 20260504223332 | 78 | 298 | 17.0 | 26.0 | 0.00 | 0.00 | 0.00 | 17 | 1021.5 |
| 20260504222336 | 78 | 262 | 14.0 | 27.0 | 0.00 | 0.00 | 0.00 | 16 | 1021.5 |
| 20260504221318 | 79 | 236 | 13.0 | 21.0 | 0.00 | 0.00 | 0.00 | 16 | 1021.5 |
| 20260504220325 | 79 | 248 | 15.0 | 24.0 | 0.00 | 0.00 | 0.00 | 17 | 1021.8 |
| 20260504215335 | 80 | 288 | 13.0 | 24.0 | 0.00 | 0.00 | 0.00 | 18 | 1021.8 |
| 20260504214323 | 80 | 263 | 8.0 | 19.0 | 0.00 | 0.00 | 0.00 | 17 | 1021.5 |
| 20260504213336 | 80 | 292 | 11.0 | 18.0 | 0.00 | 0.00 | 0.00 | 17 | 1021.5 |
| 20260504212323 | 80 | 335 | 6.0 | 11.0 | 0.00 | 0.00 | 0.00 | 16 | 1021.6 |
| 20260504211331 | 79 | 289 | 5.0 | 15.0 | 0.00 | 0.00 | 0.00 | 17 | 1021.6 |
| 20260504210320 | 80 | 275 | 9.0 | 15.0 | 0.00 | 0.00 | 0.00 | 17 | 1021.9 |
| 20260504205353 | 79 | 249 | 11.0 | 18.0 | 0.00 | 0.00 | 0.00 | 17 | 1021.8 |
| 20260504204319 | 79 | 330 | 8.0 | 14.0 | 0.00 | 0.00 | 0.00 | 18 | 1021.9 |
| 20260504203335 | 79 | 263 | 10.0 | 19.0 | 0.00 | 0.00 | 0.00 | 18 | 1022.0 |
| 20260504202321 | 79 | 272 | 6.0 | 19.0 | 0.00 | 0.00 | 0.00 | 18 | 1022.0 |
| 20260504201330 | 80 | 265 | 10.0 | 17.0 | 0.00 | 0.00 | 0.00 | 17 | 1022.3 |
| 20260504200322 | 79 | 258 | 14.0 | 21.0 | 0.00 | 0.00 | 0.00 | 17 | 1022.1 |
| 20260504195331 | 79 | 290 | 10.0 | 14.0 | 0.00 | 0.00 | 0.00 | 17 | 1022.0 |
| 20260504194341 | 79 | 277 | 10.0 | 15.0 | 0.00 | 0.00 | 0.00 | 16 | 1021.9 |
| 20260504193318 | 79 | 202 | 10.0 | 15.0 | 0.00 | 0.00 | 0.00 | 16 | 1022.0 |
| 20260504192327 | 78 | 247 | 7.0 | 15.0 | 0.00 | 0.00 | 0.00 | 18 | 1022.0 |
| 20260504191318 | 78 | 250 | 9.0 | 13.0 | 0.00 | 0.00 | 0.00 | 20 | 1022.3 |
| 20260504190324 | 77 | 242 | 5.0 | 15.0 | 0.00 | 0.00 | 0.00 | 21 | 1022.2 |
| 20260504185330 | 77 | 258 | 8.0 | 12.0 | 0.00 | 0.00 | 0.00 | 22 | 1022.4 |
| 20260504184338 | 76 | 242 | 7.0 | 15.0 | 0.00 | 0.00 | 0.00 | 22 | 1022.8 |
| 20260504183331 | 75 | 258 | 9.0 | 19.0 | 0.00 | 0.00 | 0.00 | 22 | 1022.7 |
| 20260504182318 | 75 | 258 | 11.0 | 21.0 | 0.00 | 0.00 | 0.00 | 23 | 1022.9 |
| 20260504181330 | 76 | 254 | 11.0 | 20.0 | 0.00 | 0.00 | 0.00 | 22 | 1023.1 |
| 20260504180319 | 75 | 269 | 11.0 | 23.0 | 0.00 | 0.00 | 0.00 | 22 | 1023.0 |
| 20260504175326 | 75 | 246 | 10.0 | 21.0 | 0.00 | 0.00 | 0.00 | 23 | 1022.9 |
| 20260504174334 | 75 | 261 | 13.0 | 17.0 | 0.00 | 0.00 | 0.00 | 22 | 1023.2 |
| 20260504173323 | 74 | 242 | 12.0 | 20.0 | 0.00 | 0.00 | 0.00 | 24 | 1023.1 |
| 20260504172355 | 74 | 256 | 12.0 | 18.0 | 0.00 | 0.00 | 0.00 | 24 | 1023.1 |
| 20260504171324 | 74 | 254 | 12.0 | 20.0 | 0.00 | 0.00 | 0.00 | 24 | 1023.1 |
| 20260504170318 | 75 | 282 | 12.0 | 20.0 | 0.00 | 0.00 | 0.00 | 23 | 1023.1 |
| 20260504160343 | 74 | 235 | 17.0 | 25.0 | 0.00 | 0.00 | 0.00 | 25 | 1023.1 |
| 20260504150330 | 72 | 256 | 9.0 | 16.0 | 0.00 | 0.00 | 0.00 | 30 | 1023.1 |
| 20260504140326 | 70 | 30 | 3.0 | 4.0 | 0.00 | 0.00 | 0.00 | 30 | 1023.0 |
| 20260504130319 | 66 | 140 | 1.0 | 4.0 | 0.00 | 0.00 | 0.00 | 34 | 1022.2 |
| 20260504110318 | 67 | 157 | 2.0 | 3.0 | 0.00 | 0.00 | 0.00 | 33 | 1021.6 |
| 20260504100326 | 67 | 256 | 0.0 | 0.0 | 0.00 | 0.00 | 0.00 | 32 | 1021.5 |
| 20260504081320 | 70 | 256 | 0.0 | 2.0 | 0.00 | 0.00 | 0.00 | 28 | 1021.3 |
| 20260504080349 | 70 | 256 | 1.0 | 3.0 | 0.00 | 0.00 | 0.00 | 27 | 1021.6 |
| 20260504070325 | 72 | 230 | 3.0 | 9.0 | 0.00 | 0.00 | 0.00 | 26 | 1021.8 |
| 20260504050319 | 72 | 269 | 2.0 | 4.0 | 0.00 | 0.00 | 0.00 | 26 | 1022.1 |
| 20260504045343 | 72 | 269 | 3.0 | 5.0 | 0.00 | 0.00 | 0.00 | 25 | 1022.2 |
| 20260504044351 | 72 | 209 | 2.0 | 5.0 | 0.00 | 0.00 | 0.00 | 24 | 1022.2 |
| 20260504043323 | 73 | 209 | 2.0 | 10.0 | 0.00 | 0.00 | 0.00 | 23 | 1022.2 |
| 20260504042332 | 73 | 209 | 2.0 | 8.0 | 0.00 | 0.00 | 0.00 | 23 | 1022.0 |
| 20260504041321 | 73 | 250 | 7.0 | 11.0 | 0.00 | 0.00 | 0.00 | 22 | 1022.1 |
| 20260504040332 | 74 | 251 | 1.0 | 4.0 | 0.00 | 0.00 | 0.00 | 21 | 1021.7 |
| 20260504035322 | 74 | 254 | 0.0 | 5.0 | 0.00 | 0.00 | 0.00 | 20 | 1021.4 |
| 20260504034335 | 75 | 182 | 3.0 | 13.0 | 0.00 | 0.00 | 0.00 | 20 | 1021.3 |
| 20260504033333 | 75 | 218 | 4.0 | 8.0 | 0.00 | 0.00 | 0.00 | 19 | 1021.2 |
| 20260504032322 | 76 | 227 | 6.0 | 13.0 | 0.00 | 0.00 | 0.00 | 19 | 1021.0 |
| 20260504031333 | 76 | 284 | 7.0 | 14.0 | 0.00 | 0.00 | 0.00 | 18 | 1020.7 |
| 20260504030326 | 76 | 254 | 7.0 | 14.0 | 0.00 | 0.00 | 0.00 | 17 | 1020.4 |
| 20260504025333 | 77 | 250 | 10.0 | 14.0 | 0.00 | 0.00 | 0.00 | 17 | 1020.3 |
| 20260504024357 | 78 | 238 | 9.0 | 18.0 | 0.00 | 0.00 | 0.00 | 16 | 1019.9 |
| 20260504023323 | 79 | 239 | 11.0 | 23.0 | 0.00 | 0.00 | 0.00 | 15 | 1019.8 |
| 20260504022328 | 79 | 254 | 13.0 | 20.0 | 0.00 | 0.00 | 0.00 | 14 | 1019.5 |
| 20260504021333 | 80 | 228 | 13.0 | 18.0 | 0.00 | 0.00 | 0.00 | 14 | 1019.6 |
| 20260504020342 | 80 | 229 | 9.0 | 16.0 | 0.00 | 0.00 | 0.00 | 14 | 1019.3 |
| 20260504015331 | 81 | 240 | 10.0 | 20.0 | 0.00 | 0.00 | 0.00 | 14 | 1019.1 |
| 20260504014319 | 81 | 239 | 11.0 | 22.0 | 0.00 | 0.00 | 0.00 | 13 | 1019.2 |
| 20260504013317 | 82 | 232 | 13.0 | 20.0 | 0.00 | 0.00 | 0.00 | 13 | 1018.9 |
| 20260504012342 | 82 | 240 | 14.0 | 25.0 | 0.00 | 0.00 | 0.00 | 13 | 1018.8 |